Location: Gönnheim
(49.4488°N, 8.2383°E)
Time: 20:57:47
(UTC+00:00)

Cosmos 2239 Rocket - Pass Details

Date: 19 May 2025
Orbit: 952 x 991 km, 82.9° (Epoch: 15 June)

Event Time Altitude Azimuth Distance (km) Brightness Sun altitude
Rises 21:50:39 0° 350° (N) 3,680 9.1 -17.6°
Reaches altitude 10° 21:53:11 10° 350° (N) 2,723 8.1 -17.7°
Maximum altitude 21:59:25 85° 263° (W) 973 4.5 -18.1°
Enters shadow 22:02:48 29° 176° (S) 1,687 5.2 -18.3°
